Weather History for 94368 - April, 2014

Change the Weather History Date:

Wednesday, April 9, 2014

  Actual Average Record
Temperature  
Mean Temperature 77 °F -  
Max Temperature 80 °F - - ()
Min Temperature 73 °F - - ()
Cooling Degree Days 12    
Growing Degree Days 27 (Base 50)    
Moisture  
Dew Point 68 °F    
Average Humidity 71    
Maximum Humidity 89    
Minimum Humidity 60    
Precipitation  
Precipitation 0.20 in - - ()
Sea Level Pressure  
Sea Level Pressure 29.94 in    
Wind  
Wind Speed 21 mph ()    
Max Wind Speed 26 mph    
Max Gust Speed -    
Visibility 6.1 miles    
Events      
T = Trace of Precipitation, MM = Missing Value Source: Averaged Metar Reports

Daily Weather History Graph

Daily Weather History Graph

Search for Another Location

Airport or City:

Trip Planner

Search our weather history database for the weather conditions in past years. The results will help you decide how hot, cold, wet, or windy it might be!

Date:

Astronomy

Apr. 09, 2014 Rise Set
Actual Time 6:13 AM AEST 5:58 PM AEST
Civil Twilight 5:51 AM AEST 6:20 PM AEST
Nautical Twilight 5:25 AM AEST 6:45 PM AEST
Astronomical Twilight 4:59 AM AEST 7:11 PM AEST
Moon 1:54 PM AEST (4/9) 12:48 AM AEST (4/9)
Length of Visible Light 12h 29m
Length of Day
11h 44m
Waxing Gibbous, 66% of the Moon is Illuminated
Apr 9
Waxing Gibbous
Apr 15
Full
Apr 22
Last Quarter
Apr 29
New
May 7
First Quarter

Hourly Weather History & Observations

Time (AEST) Temp. Heat Index Dew Point Humidity Pressure Visibility Wind Dir Wind Speed Gust Speed Precip Events Conditions
12:00 AM 76 °F - 68 °F 69% 29.97 in - ESE 24.2 mph - -  
12:00 AM 77.0 °F - 68.0 °F 74% 29.95 in 6.2 mi ESE 24.2 mph - N/A   Unknown
12:30 AM 77.0 °F - 68.0 °F 74% 29.95 in 6.2 mi SE 23.0 mph - N/A   Unknown
1:00 AM 77.0 °F - 68.0 °F 74% 29.95 in 6.2 mi SE 23.0 mph - N/A   Unknown
1:30 AM 77.0 °F - 68.0 °F 74% 29.95 in 6.2 mi ESE 23.0 mph - N/A   Unknown
2:00 AM 77.0 °F - 66.2 °F 69% 29.92 in 6.2 mi SE 24.2 mph - N/A   Unknown
2:30 AM 77.0 °F - 69.8 °F 78% 29.92 in 6.2 mi ESE 24.2 mph - N/A   Unknown
3:00 AM 76 °F - 67 °F 66% 29.92 in - ESE 26.5 mph - -  
3:00 AM 77.0 °F - 66.2 °F 69% 29.92 in 6.2 mi ESE 26.5 mph - N/A   Unknown
3:30 AM 77.0 °F - 68.0 °F 74% 29.92 in 6.2 mi SE 24.2 mph - N/A   Unknown
4:00 AM 77.0 °F - 66.2 °F 69% 29.92 in 6.2 mi SE 25.3 mph - N/A   Unknown
4:30 AM 77.0 °F - 66.2 °F 69% 29.92 in 6.2 mi SE 23.0 mph - N/A   Unknown
5:00 AM 77.0 °F - 66.2 °F 69% 29.95 in 6.2 mi SE 24.2 mph - N/A   Unknown
5:30 AM 77.0 °F - 66.2 °F 69% 29.95 in 6.2 mi ESE 25.3 mph - N/A   Unknown
6:00 AM 76 °F - 68 °F 69% 29.94 in - SE 24.2 mph - -  
6:00 AM 77.0 °F - 68.0 °F 74% 29.95 in 6.2 mi SE 24.2 mph - N/A   Unknown
6:30 AM 77.0 °F - 66.2 °F 69% 29.95 in 6.2 mi ESE 25.3 mph - N/A   Unknown
7:00 AM 77.0 °F - 66.2 °F 69% 29.95 in 6.2 mi ESE 24.2 mph - N/A   Unknown
7:30 AM 78.8 °F - 68.0 °F 69% 29.98 in 6.2 mi SE 21.9 mph - N/A   Unknown
8:00 AM 78.8 °F - 68.0 °F 69% 29.98 in 6.2 mi ESE 23.0 mph - N/A   Unknown
8:30 AM 78.8 °F - 66.2 °F 65% 29.98 in 6.2 mi ESE 23.0 mph - N/A   Unknown
9:00 AM 79 °F - 67 °F 60% 29.99 in - ESE 23.0 mph - -  
9:00 AM 78.8 °F - 68.0 °F 69% 29.98 in 6.2 mi ESE 23.0 mph - N/A   Unknown
9:30 AM 78.8 °F - 68.0 °F 69% 29.98 in 6.2 mi ESE 23.0 mph - N/A   Unknown
10:00 AM 80.6 °F 83.2 °F 68.0 °F 65% 29.98 in 6.2 mi ESE 25.3 mph - N/A   Unknown
10:30 AM 80.6 °F 83.2 °F 68.0 °F 65% 29.98 in 6.2 mi SE 24.2 mph - N/A   Unknown
11:00 AM 80.6 °F 83.2 °F 68.0 °F 65% 29.98 in 6.2 mi ESE 23.0 mph - N/A   Unknown
11:30 AM 80.6 °F 83.2 °F 68.0 °F 65% 29.95 in 6.2 mi ESE 20.7 mph - N/A   Unknown
12:00 PM 80 °F - 69 °F 61% 29.95 in - SE 21.9 mph - -  
12:00 PM 80.6 °F 83.2 °F 68.0 °F 65% 29.95 in 6.2 mi SE 21.9 mph - N/A   Unknown
12:30 PM 80.6 °F 83.2 °F 68.0 °F 65% 29.92 in 6.2 mi ESE 23.0 mph - N/A   Unknown
1:00 PM 80.6 °F 82.7 °F 66.2 °F 61% 29.92 in 6.2 mi ESE 21.9 mph - N/A   Unknown
1:30 PM 80.6 °F 82.7 °F 66.2 °F 61% 29.92 in 6.2 mi ESE 21.9 mph - N/A   Unknown
2:00 PM 80.6 °F 83.2 °F 68.0 °F 65% 29.89 in 6.2 mi ESE 21.9 mph - N/A   Unknown
2:30 PM 80.6 °F 82.7 °F 66.2 °F 61% 29.89 in 6.2 mi ESE 23.0 mph - N/A   Unknown
3:00 PM 79 °F - 67 °F 60% 29.89 in - ESE 23.0 mph - -  
3:00 PM 78.8 °F - 68.0 °F 69% 29.89 in 6.2 mi ESE 23.0 mph - N/A   Unknown
3:30 PM 78.8 °F - 68.0 °F 69% 29.89 in 6.2 mi SE 20.7 mph - N/A   Unknown
4:00 PM 78.8 °F - 68.0 °F 69% 29.89 in 6.2 mi SE 24.2 mph - N/A   Unknown
5:00 PM 77.0 °F - 68.0 °F 74% 29.89 in 6.2 mi SE 21.9 mph - N/A   Unknown
5:30 PM 77.0 °F - 68.0 °F 74% 29.89 in 6.2 mi SE 21.9 mph - N/A   Unknown
6:00 PM 77 °F - 68 °F 66% 29.91 in - SE 20.7 mph - -  
6:00 PM 77.0 °F - 68.0 °F 74% 29.92 in 6.2 mi SE 20.7 mph - N/A   Unknown
6:30 PM 77.0 °F - 66.2 °F 69% 29.92 in 6.2 mi SE 18.4 mph - N/A   Unknown
7:00 PM 77.0 °F - 68.0 °F 74% 29.92 in 6.2 mi SE 20.7 mph - N/A   Unknown
7:30 PM 77.0 °F - 68.0 °F 74% 29.95 in 6.2 mi ESE 19.6 mph - N/A   Unknown
8:00 PM 77.0 °F - 69.8 °F 78% 29.95 in 6.2 mi ESE 17.3 mph - N/A   Unknown
8:30 PM 77.0 °F - 69.8 °F 78% 29.95 in 6.2 mi SE 18.4 mph - N/A   Unknown
9:00 PM 76 °F - 69 °F 72% 29.97 in - SE 16.1 mph - -  
9:00 PM 77.0 °F - 68.0 °F 74% 29.98 in 6.2 mi SE 16.1 mph - N/A   Unknown
9:30 PM 75.2 °F - 69.8 °F 83% 29.98 in 6.2 mi ESE 15.0 mph - N/A   Unknown
10:00 PM 75.2 °F - 69.8 °F 83% 29.98 in 6.2 mi ESE 15.0 mph - N/A   Unknown
10:30 PM 75.2 °F - 71.6 °F 89% 29.98 in 6.2 mi SE 16.1 mph - N/A   Unknown
11:02 PM 75.2 °F - 68.0 °F 78% 29.95 in 3.7 mi East 17.3 mph - N/A   Unknown
11:14 PM 75.2 °F - 69.8 °F 83% 29.95 in 6.2 mi SE 13.8 mph - N/A   Unknown
11:30 PM 75.2 °F - 69.8 °F 83% 29.95 in 6.2 mi SSE 16.1 mph - N/A   Unknown
11:51 PM 73.4 °F - 69.8 °F 88% 29.95 in 3.7 mi SSE 18.4 mph - N/A   Unknown